This is the latest recevied weather packets stored in our database for station/object DW9280. If no packets are shown the sender has not sent any weather packets the latest 10 day(s).
| Time | Temp. | Humidity | Pressure | Rain* | Wind** | Luminosity | Snow |
|---|---|---|---|---|---|---|---|
| 1787500578 | 18.89° C | 74% | 1024.7 hPa | 0 mm | - | 473 W/m² | - |
| 1787500277 | 18.89° C | 76% | 1024.8 hPa | 0 mm | - | 489 W/m² | - |
| 1787499974 | 18.33° C | 77% | 1024.8 hPa | 0 mm | - | 515 W/m² | - |
| 1787499666 | 17.78° C | 78% | 1024.8 hPa | 0 mm | - | 332 W/m² | - |
| 1787499366 | 17.78° C | 79% | 1024.8 hPa | 0 mm | - | 306 W/m² | - |
| 1787499064 | 17.22° C | 80% | 1024.8 hPa | 0 mm | - | 243 W/m² | - |
| 1787498767 | 17.22° C | 81% | 1024.8 hPa | 0 mm | - | 220 W/m² | - |
| 1787498566 | 17.22° C | 81% | 1024.8 hPa | 0 mm | - | 179 W/m² | - |
| 1787498164 | 17.22° C | 80% | 1024.8 hPa | 0 mm | - | 137 W/m² | - |
| 1787497862 | 17.22° C | 80% | 1024.9 hPa | 0 mm | - | 137 W/m² | - |
| 1787497564 | 17.22° C | 79% | 1024.9 hPa | 0 mm | - | 179 W/m² | - |
| 1787497262 | 17.78° C | 78% | 1025 hPa | 0 mm | - | 183 W/m² | - |
| 1787496962 | 18.33° C | 76% | 1024.9 hPa | 0 mm | - | 200 W/m² | - |
| 1787496662 | 18.33° C | 74% | 1024.8 hPa | 0 mm | - | 160 W/m² | - |
| 1787496362 | 18.33° C | 74% | 1024.8 hPa | 0 mm | - | 149 W/m² | - |
| 1787496154 | 18.33° C | 75% | 1024.8 hPa | 0 mm | - | 148 W/m² | - |
| 1787495765 | 18.33° C | 75% | 1024.8 hPa | 0 mm | - | 186 W/m² | - |
| 1787495463 | 17.78° C | 77% | 1024.7 hPa | 0 mm | - | 199 W/m² | - |
| 1787495164 | 17.78° C | 77% | 1024.7 hPa | 0 mm | - | 171 W/m² | - |
| 1787494948 | 17.78° C | 76% | 1024.8 hPa | 0 mm | - | 149 W/m² | - |
| 1787494562 | 17.78° C | 76% | 1024.8 hPa | 0 mm | - | 135 W/m² | - |
| 1787494263 | 18.33° C | 75% | 1024.8 hPa | 0 mm | - | 139 W/m² | - |
| 1787493964 | 18.33° C | 74% | 1024.8 hPa | 0 mm | - | 128 W/m² | - |
| 1787493663 | 18.89° C | 74% | 1024.9 hPa | 0 mm | - | 156 W/m² | - |
| 1787493363 | 19.44° C | 73% | 1024.8 hPa | 0 mm | - | 169 W/m² | - |
* Rain latest hour (hover to see other rain measurements)
** Current wind speed in m/s (hover to see current wind gust speed)